Time,TemperatureF,DewpointF,PressureIn,WindDirection,WindDirectionDegrees,WindSpeedMPH,WindSpeedGustMPH,Humidity,HourlyPrecipIn,Conditions,Clouds,dailyrainin,SoftwareType,DateUTC
2013-02-13 00:00:00,37.4,35.8,29.94,North,357,2.0,3.0,94,0.00,,,0.07,meteohub,2013-02-13 05:00:00,
2013-02-13 00:05:00,37.2,35.6,29.94,NNE,16,1.0,4.0,94,0.00,,,0.07,meteohub,2013-02-13 05:05:00,
2013-02-13 00:10:00,37.4,35.8,29.95,NNE,27,2.0,4.0,94,0.00,,,0.07,meteohub,2013-02-13 05:10:00,
2013-02-13 00:15:00,37.4,35.8,29.93,NNE,27,2.0,5.0,94,0.00,,,0.07,meteohub,2013-02-13 05:15:00,
2013-02-13 00:20:00,37.6,35.8,29.93,NE,39,0.0,5.0,93,0.00,,,0.07,meteohub,2013-02-13 05:20:00,
2013-02-13 00:25:00,37.6,35.8,29.92,NE,50,1.0,5.0,93,0.00,,,0.07,meteohub,2013-02-13 05:25:00,
2013-02-13 00:30:00,37.6,35.8,29.92,ENE,72,0.0,5.0,93,0.00,,,0.07,meteohub,2013-02-13 05:30:00,
2013-02-13 00:35:00,37.6,35.8,29.92,East,101,1.0,5.0,93,0.00,,,0.07,meteohub,2013-02-13 05:35:00,
2013-02-13 00:40:00,37.6,35.8,29.90,East,97,1.0,3.0,93,0.00,,,0.07,meteohub,2013-02-13 05:40:00,
2013-02-13 00:45:00,37.4,35.6,29.91,NNW,335,1.0,4.0,93,0.00,,,0.07,meteohub,2013-02-13 05:45:00,
2013-02-13 00:50:00,37.2,35.4,29.91,North,0,2.0,4.0,93,0.00,,,0.07,meteohub,2013-02-13 05:50:00,
2013-02-13 00:55:00,37.2,35.4,29.92,NE,38,2.0,6.0,93,0.00,,,0.07,meteohub,2013-02-13 05:55:00,
2013-02-13 01:00:00,37.2,35.1,29.91,NNE,32,3.0,8.0,92,0.00,,,0.07,meteohub,2013-02-13 06:00:00,
2013-02-13 01:05:00,37.2,35.1,29.91,SE,137,1.0,8.0,92,0.00,,,0.07,meteohub,2013-02-13 06:05:00,
2013-02-13 01:10:00,37.2,35.1,29.91,North,7,0.0,8.0,92,0.00,,,0.07,meteohub,2013-02-13 06:10:00,
2013-02-13 01:15:00,37.0,34.9,29.88,ENE,71,1.0,5.0,92,0.01,,,0.08,meteohub,2013-02-13 06:15:00,
2013-02-13 01:21:00,37.0,35.2,29.90,NNW,333,0.0,4.0,93,0.01,,,0.08,meteohub,2013-02-13 06:21:00,
2013-02-13 01:26:00,36.9,35.1,29.88,ESE,123,1.0,4.0,93,0.01,,,0.08,meteohub,2013-02-13 06:26:00,
2013-02-13 01:31:00,36.9,35.1,29.88,NNE,27,3.0,4.0,93,0.01,,,0.08,meteohub,2013-02-13 06:31:00,
2013-02-13 01:36:00,36.9,35.1,29.88,NE,45,0.0,4.0,93,0.01,,,0.08,meteohub,2013-02-13 06:36:00,
2013-02-13 01:41:00,36.9,35.1,29.88,NNE,12,0.0,4.0,93,0.01,,,0.08,meteohub,2013-02-13 06:41:00,
2013-02-13 01:46:00,36.9,35.1,29.89,NNE,33,1.0,3.0,93,0.01,,,0.08,meteohub,2013-02-13 06:46:00,
2013-02-13 01:51:00,36.9,35.1,29.89,NE,36,0.0,3.0,93,0.01,,,0.08,meteohub,2013-02-13 06:51:00,
2013-02-13 01:56:00,36.9,35.1,29.88,East,101,1.0,3.0,93,0.01,,,0.08,meteohub,2013-02-13 06:56:00,
2013-02-13 02:01:00,36.9,34.7,29.88,NE,44,0.0,3.0,92,0.01,,,0.08,meteohub,2013-02-13 07:01:00,
2013-02-13 02:06:00,36.9,35.1,29.87,NE,41,0.0,2.0,93,0.02,,,0.09,meteohub,2013-02-13 07:06:00,
2013-02-13 02:11:00,36.9,35.2,29.87,NNE,19,0.0,2.0,94,0.02,,,0.09,meteohub,2013-02-13 07:11:00,
2013-02-13 02:16:00,36.9,35.2,29.88,NNE,19,0.0,1.0,94,0.01,,,0.09,meteohub,2013-02-13 07:16:00,
2013-02-13 02:21:00,36.7,34.9,29.87,NNE,29,1.0,2.0,93,0.01,,,0.09,meteohub,2013-02-13 07:21:00,
2013-02-13 02:26:00,36.7,34.9,29.87,NNE,16,0.0,2.0,93,0.01,,,0.09,meteohub,2013-02-13 07:26:00,
2013-02-13 02:31:00,36.7,35.1,29.88,NNE,30,0.0,2.0,94,0.01,,,0.09,meteohub,2013-02-13 07:31:00,
2013-02-13 02:36:00,36.7,35.1,29.88,NNE,30,0.0,2.0,94,0.02,,,0.10,meteohub,2013-02-13 07:36:00,
2013-02-13 02:41:00,36.7,35.1,29.88,NW,309,0.0,0.0,94,0.02,,,0.10,meteohub,2013-02-13 07:41:00,
2013-02-13 02:46:00,36.7,35.1,29.88,SSW,208,0.0,0.0,94,0.02,,,0.10,meteohub,2013-02-13 07:46:00,
2013-02-13 02:51:00,36.5,34.9,29.88,SSW,208,0.0,1.0,94,0.02,,,0.10,meteohub,2013-02-13 07:51:00,
2013-02-13 02:56:00,36.3,34.7,29.88,SSW,208,0.0,1.0,94,0.02,,,0.10,meteohub,2013-02-13 07:56:00,
2013-02-13 03:01:00,36.5,34.9,29.86,ESE,113,0.0,0.0,94,0.01,,,0.10,meteohub,2013-02-13 08:01:00,
2013-02-13 03:06:00,36.5,35.2,29.86,NNE,31,1.0,1.0,95,0.01,,,0.10,meteohub,2013-02-13 08:06:00,
2013-02-13 03:11:00,36.5,35.2,29.86,NNE,32,0.0,1.0,95,0.01,,,0.10,meteohub,2013-02-13 08:11:00,
2013-02-13 03:16:00,36.5,35.2,29.86,NNE,13,2.0,2.0,95,0.01,,,0.10,meteohub,2013-02-13 08:16:00,
2013-02-13 03:21:00,36.5,35.2,29.86,NE,36,1.0,3.0,95,0.01,,,0.10,meteohub,2013-02-13 08:21:00,
2013-02-13 03:26:00,36.3,35.1,29.86,NNW,328,0.0,3.0,95,0.01,,,0.10,meteohub,2013-02-13 08:26:00,
2013-02-13 03:31:00,36.3,35.1,29.86,NNE,16,0.0,3.0,95,0.01,,,0.10,meteohub,2013-02-13 08:31:00,
2013-02-13 03:36:00,36.3,35.1,29.85,NNE,16,0.0,1.0,95,0.00,,,0.10,meteohub,2013-02-13 08:36:00,
2013-02-13 03:41:00,36.3,35.1,29.85,NNE,16,0.0,1.0,95,0.00,,,0.10,meteohub,2013-02-13 08:41:00,
2013-02-13 03:46:00,36.3,35.1,29.85,NNE,16,0.0,1.0,95,0.00,,,0.10,meteohub,2013-02-13 08:46:00,
2013-02-13 03:51:00,36.3,35.1,29.84,NNE,15,0.0,1.0,95,0.00,,,0.10,meteohub,2013-02-13 08:51:00,
2013-02-13 03:56:00,36.3,35.2,29.85,NNE,16,0.0,0.0,96,0.00,,,0.10,meteohub,2013-02-13 08:56:00,
2013-02-13 04:01:00,36.3,35.2,29.84,NNE,16,0.0,1.0,96,0.00,,,0.10,meteohub,2013-02-13 09:01:00,
2013-02-13 04:06:00,36.3,35.2,29.84,NNE,19,0.0,1.0,96,0.00,,,0.10,meteohub,2013-02-13 09:06:00,
2013-02-13 04:11:00,36.3,35.2,29.84,NNE,19,0.0,1.0,96,0.00,,,0.10,meteohub,2013-02-13 09:11:00,
2013-02-13 04:16:00,36.1,35.1,29.83,NNE,19,0.0,0.0,96,0.00,,,0.10,meteohub,2013-02-13 09:16:00,
2013-02-13 04:21:00,36.1,34.9,29.83,NNE,19,0.0,0.0,95,0.02,,,0.12,meteohub,2013-02-13 09:21:00,
2013-02-13 04:26:00,36.1,35.1,29.84,NNE,19,0.0,0.0,96,0.03,,,0.13,meteohub,2013-02-13 09:26:00,
2013-02-13 04:31:00,36.1,35.1,29.84,NNE,13,0.0,0.0,96,0.03,,,0.13,meteohub,2013-02-13 09:31:00,
2013-02-13 04:36:00,36.1,35.1,29.83,NNE,13,0.0,0.0,96,0.03,,,0.13,meteohub,2013-02-13 09:36:00,
2013-02-13 04:41:00,36.1,35.1,29.83,West,280,2.0,0.0,96,0.03,,,0.13,meteohub,2013-02-13 09:41:00,
2013-02-13 04:46:00,36.1,35.1,29.83,West,276,2.0,2.0,96,0.03,,,0.13,meteohub,2013-02-13 09:46:00,
2013-02-13 04:51:00,36.1,35.1,29.83,WNW,285,2.0,2.0,96,0.03,,,0.13,meteohub,2013-02-13 09:51:00,
2013-02-13 04:56:00,36.1,35.1,29.83,ENE,58,0.0,3.0,96,0.03,,,0.13,meteohub,2013-02-13 09:56:00,
2013-02-13 05:02:00,36.0,34.9,29.83,East,91,1.0,3.0,96,0.03,,,0.13,meteohub,2013-02-13 10:02:00,
2013-02-13 05:07:00,36.0,34.9,29.84,NW,312,0.0,3.0,96,0.03,,,0.13,meteohub,2013-02-13 10:07:00,
2013-02-13 05:12:00,36.0,34.9,29.83,East,89,0.0,3.0,96,0.03,,,0.13,meteohub,2013-02-13 10:12:00,
2013-02-13 05:17:00,36.0,34.9,29.83,WNW,289,0.0,2.0,96,0.03,,,0.13,meteohub,2013-02-13 10:17:00,
2013-02-13 05:22:00,36.0,34.9,29.82,East,79,0.0,1.0,96,0.01,,,0.13,meteohub,2013-02-13 10:22:00,
2013-02-13 05:27:00,36.0,34.9,29.82,NNE,12,0.0,1.0,96,0.00,,,0.13,meteohub,2013-02-13 10:27:00,
2013-02-13 05:32:00,36.0,34.9,29.82,NNE,20,0.0,1.0,96,0.00,,,0.13,meteohub,2013-02-13 10:32:00,
2013-02-13 05:37:00,36.0,34.9,29.82,NNE,19,2.0,2.0,96,0.00,,,0.13,meteohub,2013-02-13 10:37:00,
2013-02-13 05:42:00,36.0,34.9,29.81,NNE,13,0.0,3.0,96,0.00,,,0.13,meteohub,2013-02-13 10:42:00,
2013-02-13 05:47:00,36.0,34.9,29.82,NNE,14,0.0,3.0,96,0.00,,,0.13,meteohub,2013-02-13 10:47:00,
2013-02-13 05:52:00,36.0,34.9,29.82,East,86,0.0,3.0,96,0.00,,,0.13,meteohub,2013-02-13 10:52:00,
2013-02-13 05:57:00,36.0,34.9,29.81,East,86,0.0,1.0,96,0.00,,,0.13,meteohub,2013-02-13 10:57:00,
2013-02-13 06:02:00,36.0,34.9,29.80,NE,39,0.0,1.0,96,0.00,,,0.13,meteohub,2013-02-13 11:02:00,
2013-02-13 06:07:00,36.0,34.9,29.80,North,349,0.0,1.0,96,0.00,,,0.13,meteohub,2013-02-13 11:07:00,
2013-02-13 06:12:00,36.0,34.9,29.79,NNE,22,0.0,1.0,96,0.00,,,0.13,meteohub,2013-02-13 11:12:00,
2013-02-13 06:17:00,36.0,34.9,29.80,NNE,32,0.0,2.0,96,0.00,,,0.13,meteohub,2013-02-13 11:17:00,
2013-02-13 06:22:00,36.0,34.9,29.80,North,1,0.0,2.0,96,0.00,,,0.13,meteohub,2013-02-13 11:22:00,
2013-02-13 06:27:00,36.0,35.2,29.80,NNE,20,0.0,2.0,97,0.00,,,0.13,meteohub,2013-02-13 11:27:00,
2013-02-13 06:32:00,36.0,35.2,29.79,NE,45,0.0,1.0,97,0.00,,,0.13,meteohub,2013-02-13 11:32:00,
2013-02-13 06:37:00,36.0,34.9,29.78,NE,46,0.0,2.0,96,0.00,,,0.13,meteohub,2013-02-13 11:37:00,
2013-02-13 06:42:00,36.0,35.2,29.79,NNE,13,0.0,2.0,97,0.00,,,0.13,meteohub,2013-02-13 11:42:00,
2013-02-13 06:47:00,36.0,35.2,29.79,NE,40,0.0,1.0,97,0.00,,,0.13,meteohub,2013-02-13 11:47:00,
2013-02-13 06:52:00,36.0,35.2,29.80,NE,39,0.0,1.0,97,0.00,,,0.13,meteohub,2013-02-13 11:52:00,
2013-02-13 06:57:00,36.0,35.2,29.81,NE,40,0.0,1.0,97,0.00,,,0.13,meteohub,2013-02-13 11:57:00,
2013-02-13 07:02:00,36.0,35.2,29.81,North,0,0.0,0.0,97,0.00,,,0.13,meteohub,2013-02-13 12:02:00,
2013-02-13 07:07:00,36.0,35.2,29.79,ENE,64,0.0,1.0,97,0.00,,,0.13,meteohub,2013-02-13 12:07:00,
2013-02-13 07:12:00,36.0,35.2,29.79,ENE,62,0.0,2.0,97,0.00,,,0.13,meteohub,2013-02-13 12:12:00,
2013-02-13 07:17:00,36.0,35.2,29.81,ENE,62,0.0,2.0,97,0.00,,,0.13,meteohub,2013-02-13 12:17:00,
2013-02-13 07:22:00,36.0,35.2,29.82,WNW,297,0.0,2.0,97,0.00,,,0.13,meteohub,2013-02-13 12:22:00,
2013-02-13 07:27:00,36.0,35.2,29.81,WNW,296,0.0,0.0,97,0.00,,,0.13,meteohub,2013-02-13 12:27:00,
2013-02-13 07:32:00,36.0,35.2,29.81,East,98,0.0,1.0,97,0.00,,,0.13,meteohub,2013-02-13 12:32:00,
2013-02-13 07:37:00,36.0,35.2,29.79,East,96,0.0,1.0,97,0.00,,,0.13,meteohub,2013-02-13 12:37:00,
2013-02-13 07:42:00,36.0,35.2,29.79,NNE,23,0.0,2.0,97,0.00,,,0.13,meteohub,2013-02-13 12:42:00,
2013-02-13 07:47:00,36.0,35.2,29.81,NW,313,0.0,4.0,97,0.00,,,0.13,meteohub,2013-02-13 12:47:00,
2013-02-13 07:52:00,36.0,35.2,29.81,North,349,0.0,4.0,97,0.00,,,0.13,meteohub,2013-02-13 12:52:00,
2013-02-13 07:57:00,36.0,35.2,29.81,NE,46,0.0,2.0,97,0.00,,,0.13,meteohub,2013-02-13 12:57:00,
2013-02-13 08:02:00,36.1,35.4,29.79,East,91,1.0,1.0,97,0.01,,,0.14,meteohub,2013-02-13 13:02:00,
2013-02-13 08:07:00,36.0,35.2,29.79,NNE,23,1.0,3.0,97,0.01,,,0.14,meteohub,2013-02-13 13:07:00,
2013-02-13 08:12:00,36.1,35.4,29.81,NW,325,0.0,3.0,97,0.01,,,0.14,meteohub,2013-02-13 13:12:00,
2013-02-13 08:17:00,36.1,35.4,29.79,NNE,29,1.0,3.0,97,0.01,,,0.14,meteohub,2013-02-13 13:17:00,
2013-02-13 08:22:00,36.1,35.4,29.80,East,99,0.0,1.0,97,0.01,,,0.14,meteohub,2013-02-13 13:22:00,
2013-02-13 08:27:00,36.1,35.4,29.79,East,99,0.0,1.0,97,0.01,,,0.14,meteohub,2013-02-13 13:27:00,
2013-02-13 08:32:00,36.1,35.4,29.78,NNW,338,0.0,1.0,97,0.01,,,0.14,meteohub,2013-02-13 13:32:00,
2013-02-13 08:37:00,36.3,35.6,29.78,NE,36,0.0,1.0,97,0.01,,,0.14,meteohub,2013-02-13 13:37:00,
2013-02-13 08:42:00,36.3,35.6,29.80,NW,325,1.0,1.0,97,0.01,,,0.14,meteohub,2013-02-13 13:42:00,
2013-02-13 08:47:00,36.5,35.8,29.81,WNW,302,0.0,2.0,97,0.01,,,0.14,meteohub,2013-02-13 13:47:00,
2013-02-13 08:52:00,36.7,36.0,29.81,SE,143,0.0,2.0,97,0.01,,,0.14,meteohub,2013-02-13 13:52:00,
2013-02-13 08:57:00,36.7,36.0,29.81,WSW,250,0.0,2.0,97,0.00,,,0.14,meteohub,2013-02-13 13:57:00,
2013-02-13 09:02:00,36.9,36.1,29.80,ESE,108,0.0,1.0,97,0.00,,,0.14,meteohub,2013-02-13 14:02:00,
2013-02-13 09:07:00,37.0,36.3,29.80,West,264,1.0,2.0,97,0.00,,,0.14,meteohub,2013-02-13 14:07:00,
2013-02-13 09:12:00,37.0,36.3,29.78,NE,34,5.0,5.0,97,0.00,,,0.14,meteohub,2013-02-13 14:12:00,
2013-02-13 09:17:00,37.2,36.5,29.79,NNW,329,0.0,5.0,97,0.00,,,0.14,meteohub,2013-02-13 14:17:00,
2013-02-13 09:22:00,37.2,36.5,29.79,NW,310,0.0,5.0,97,0.00,,,0.14,meteohub,2013-02-13 14:22:00,
2013-02-13 09:27:00,37.2,36.5,29.80,SW,217,0.0,5.0,97,0.00,,,0.14,meteohub,2013-02-13 14:27:00,
2013-02-13 09:32:00,37.4,36.7,29.79,SE,134,3.0,3.0,97,0.00,,,0.14,meteohub,2013-02-13 14:32:00,
2013-02-13 09:37:00,37.4,36.7,29.80,West,263,1.0,3.0,97,0.00,,,0.14,meteohub,2013-02-13 14:37:00,
2013-02-13 09:42:00,37.4,36.7,29.78,ESE,104,0.0,3.0,97,0.00,,,0.14,meteohub,2013-02-13 14:42:00,
2013-02-13 09:47:00,37.6,36.9,29.79,WNW,283,0.0,3.0,97,0.00,,,0.14,meteohub,2013-02-13 14:47:00,
2013-02-13 09:52:00,37.6,36.9,29.78,SSE,152,0.0,2.0,97,0.00,,,0.14,meteohub,2013-02-13 14:52:00,
2013-02-13 09:57:00,37.6,36.9,29.78,SSW,208,0.0,2.0,97,0.00,,,0.14,meteohub,2013-02-13 14:57:00,
2013-02-13 10:02:00,37.8,37.0,29.78,WNW,287,0.0,2.0,97,0.00,,,0.14,meteohub,2013-02-13 15:02:00,
2013-02-13 10:07:00,37.8,37.0,29.79,ESE,110,0.0,2.0,97,0.00,,,0.14,meteohub,2013-02-13 15:07:00,
2013-02-13 10:12:00,37.9,37.2,29.78,SE,145,0.0,2.0,97,0.00,,,0.14,meteohub,2013-02-13 15:12:00,
2013-02-13 10:17:00,38.1,37.4,29.77,West,271,0.0,2.0,97,0.00,,,0.14,meteohub,2013-02-13 15:17:00,
2013-02-13 10:22:00,38.1,37.4,29.76,NNE,23,4.0,4.0,97,0.01,,,0.15,meteohub,2013-02-13 15:22:00,
2013-02-13 10:27:00,38.1,37.4,29.76,NW,324,0.0,5.0,97,0.01,,,0.15,meteohub,2013-02-13 15:27:00,
2013-02-13 10:32:00,38.3,37.6,29.76,SW,215,3.0,5.0,97,0.01,,,0.15,meteohub,2013-02-13 15:32:00,
2013-02-13 10:37:00,38.5,37.8,29.78,WSW,245,0.0,5.0,97,0.01,,,0.15,meteohub,2013-02-13 15:37:00,
2013-02-13 10:42:00,38.5,37.8,29.77,West,266,0.0,4.0,97,0.01,,,0.15,meteohub,2013-02-13 15:42:00,
2013-02-13 10:47:00,38.7,37.9,29.76,SSW,197,0.0,4.0,97,0.01,,,0.15,meteohub,2013-02-13 15:47:00,
2013-02-13 10:52:00,38.7,37.9,29.75,SSW,193,0.0,3.0,97,0.01,,,0.15,meteohub,2013-02-13 15:52:00,
2013-02-13 10:57:00,38.8,38.1,29.78,WSW,252,1.0,3.0,97,0.01,,,0.15,meteohub,2013-02-13 15:57:00,
2013-02-13 11:02:00,38.8,38.1,29.78,WNW,283,1.0,3.0,97,0.01,,,0.15,meteohub,2013-02-13 16:02:00,
2013-02-13 11:07:00,38.8,38.1,29.77,WSW,243,1.0,4.0,97,0.01,,,0.15,meteohub,2013-02-13 16:07:00,
2013-02-13 11:12:00,38.8,38.1,29.77,SE,125,2.0,4.0,97,0.01,,,0.15,meteohub,2013-02-13 16:12:00,
2013-02-13 11:17:00,38.8,38.1,29.76,West,267,0.0,7.0,97,0.00,,,0.15,meteohub,2013-02-13 16:17:00,
2013-02-13 11:22:00,38.8,38.1,29.76,WSW,246,1.0,7.0,97,0.00,,,0.15,meteohub,2013-02-13 16:22:00,
2013-02-13 11:27:00,39.0,38.3,29.76,West,279,1.0,7.0,97,0.00,,,0.15,meteohub,2013-02-13 16:27:00,
2013-02-13 11:32:00,39.0,38.3,29.77,West,260,0.0,3.0,97,0.00,,,0.15,meteohub,2013-02-13 16:32:00,
2013-02-13 11:37:00,39.2,38.5,29.76,WSW,256,0.0,3.0,97,0.00,,,0.15,meteohub,2013-02-13 16:37:00,
2013-02-13 11:42:00,39.4,38.7,29.75,SW,219,0.0,2.0,97,0.00,,,0.15,meteohub,2013-02-13 16:42:00,
2013-02-13 11:47:00,39.4,38.7,29.76,West,260,1.0,2.0,97,0.00,,,0.15,meteohub,2013-02-13 16:47:00,
2013-02-13 11:52:00,39.2,38.5,29.76,SSW,210,1.0,2.0,97,0.00,,,0.15,meteohub,2013-02-13 16:52:00,
2013-02-13 11:57:00,39.4,38.7,29.76,West,271,0.0,2.0,97,0.00,,,0.15,meteohub,2013-02-13 16:57:00,
2013-02-13 12:02:00,39.4,38.7,29.75,SW,218,1.0,3.0,97,0.00,,,0.15,meteohub,2013-02-13 17:02:00,
2013-02-13 12:07:00,39.4,38.7,29.76,WSW,244,3.0,5.0,97,0.00,,,0.15,meteohub,2013-02-13 17:07:00,
2013-02-13 12:12:00,39.6,38.8,29.74,WNW,287,0.0,5.0,97,0.00,,,0.15,meteohub,2013-02-13 17:12:00,
2013-02-13 12:17:00,39.7,39.0,29.73,SW,229,1.0,5.0,97,0.00,,,0.15,meteohub,2013-02-13 17:17:00,
2013-02-13 12:22:00,39.9,39.2,29.73,West,280,2.0,5.0,97,0.00,,,0.15,meteohub,2013-02-13 17:22:00,
2013-02-13 12:27:00,40.3,39.6,29.73,West,266,1.0,5.0,97,0.00,,,0.15,meteohub,2013-02-13 17:27:00,
2013-02-13 12:32:00,40.6,40.1,29.72,West,274,2.0,7.0,98,0.00,,,0.15,meteohub,2013-02-13 17:32:00,
2013-02-13 12:37:00,40.8,40.1,29.72,WSW,242,7.0,8.0,97,0.00,,,0.15,meteohub,2013-02-13 17:37:00,
2013-02-13 12:42:00,40.8,39.7,29.72,West,266,5.0,11.0,96,0.00,,,0.15,meteohub,2013-02-13 17:42:00,
2013-02-13 12:47:00,40.6,39.6,29.73,West,269,3.0,11.0,96,0.00,,,0.15,meteohub,2013-02-13 17:47:00,
2013-02-13 12:52:00,40.6,39.6,29.72,WSW,256,6.0,11.0,96,0.00,,,0.15,meteohub,2013-02-13 17:52:00,
2013-02-13 12:57:00,40.6,39.9,29.71,West,273,5.0,12.0,97,0.00,,,0.15,meteohub,2013-02-13 17:57:00,
2013-02-13 13:02:00,40.6,39.6,29.71,SW,226,3.0,12.0,96,0.00,,,0.15,meteohub,2013-02-13 18:02:00,
2013-02-13 13:07:00,40.8,39.7,29.71,SW,224,8.0,12.0,96,0.00,,,0.15,meteohub,2013-02-13 18:07:00,
2013-02-13 13:12:00,40.8,39.7,29.71,SW,235,8.0,11.0,96,0.00,,,0.15,meteohub,2013-02-13 18:12:00,
2013-02-13 13:17:00,40.6,39.6,29.70,West,281,4.0,12.0,96,0.00,,,0.15,meteohub,2013-02-13 18:17:00,
2013-02-13 13:22:00,40.3,39.2,29.70,WSW,246,5.0,12.0,96,0.00,,,0.15,meteohub,2013-02-13 18:22:00,
2013-02-13 13:27:00,40.3,39.2,29.70,WSW,237,4.0,12.0,96,0.00,,,0.15,meteohub,2013-02-13 18:27:00,
2013-02-13 13:32:00,40.3,39.2,29.70,SW,215,5.0,11.0,96,0.00,,,0.15,meteohub,2013-02-13 18:32:00,
2013-02-13 13:37:00,39.9,38.8,29.70,West,266,3.0,11.0,96,0.00,,,0.15,meteohub,2013-02-13 18:37:00,
2013-02-13 13:42:00,40.1,39.0,29.70,WSW,252,4.0,11.0,96,0.00,,,0.15,meteohub,2013-02-13 18:42:00,
2013-02-13 13:47:00,40.3,39.2,29.69,WSW,257,9.0,11.0,96,0.00,,,0.15,meteohub,2013-02-13 18:47:00,
2013-02-13 13:52:00,40.1,39.0,29.70,WSW,256,2.0,11.0,96,0.00,,,0.15,meteohub,2013-02-13 18:52:00,
2013-02-13 13:57:00,39.9,38.8,29.70,WSW,256,6.0,11.0,96,0.00,,,0.15,meteohub,2013-02-13 18:57:00,
2013-02-13 14:02:00,39.9,38.8,29.70,WSW,248,5.0,12.0,96,0.00,,,0.15,meteohub,2013-02-13 19:02:00,
2013-02-13 14:07:00,39.7,38.7,29.70,WSW,255,5.0,12.0,96,0.00,,,0.15,meteohub,2013-02-13 19:07:00,
2013-02-13 14:12:00,39.9,39.2,29.70,WSW,245,5.0,12.0,97,0.00,,,0.15,meteohub,2013-02-13 19:12:00,
2013-02-13 14:17:00,39.7,38.7,29.69,WSW,255,4.0,12.0,96,0.00,,,0.15,meteohub,2013-02-13 19:17:00,
2013-02-13 14:22:00,39.9,39.2,29.69,West,261,1.0,12.0,97,0.00,,,0.15,meteohub,2013-02-13 19:22:00,
2013-02-13 14:27:00,39.9,39.2,29.70,SW,224,5.0,9.0,97,0.00,,,0.15,meteohub,2013-02-13 19:27:00,
2013-02-13 14:32:00,40.1,39.0,29.70,WSW,257,4.0,9.0,96,0.00,,,0.15,meteohub,2013-02-13 19:32:00,
2013-02-13 14:37:00,40.5,39.4,29.70,West,281,2.0,14.0,96,0.00,,,0.15,meteohub,2013-02-13 19:37:00,
2013-02-13 14:42:00,40.3,39.2,29.70,West,259,7.0,14.0,96,0.00,,,0.15,meteohub,2013-02-13 19:42:00,
2013-02-13 14:47:00,40.3,39.2,29.70,WSW,237,4.0,13.0,96,0.00,,,0.15,meteohub,2013-02-13 19:47:00,
2013-02-13 14:52:00,40.5,39.4,29.70,West,259,4.0,13.0,96,0.00,,,0.15,meteohub,2013-02-13 19:52:00,
2013-02-13 14:57:00,40.6,39.6,29.70,SSW,208,6.0,10.0,96,0.00,,,0.15,meteohub,2013-02-13 19:57:00,
2013-02-13 15:02:00,40.6,39.6,29.70,WSW,238,2.0,7.0,96,0.00,,,0.15,meteohub,2013-02-13 20:02:00,
2013-02-13 15:07:00,40.5,39.4,29.70,WSW,246,3.0,11.0,96,0.00,,,0.15,meteohub,2013-02-13 20:07:00,
2013-02-13 15:12:00,40.5,39.4,29.69,SSW,193,0.0,11.0,96,0.00,,,0.15,meteohub,2013-02-13 20:12:00,
2013-02-13 15:17:00,40.6,39.6,29.69,SW,228,7.0,9.0,96,0.00,,,0.15,meteohub,2013-02-13 20:17:00,
2013-02-13 15:22:00,40.8,39.6,29.70,WSW,237,1.0,8.0,95,0.00,,,0.15,meteohub,2013-02-13 20:22:00,
2013-02-13 15:27:00,41.2,40.1,29.70,WSW,255,1.0,7.0,96,0.00,,,0.15,meteohub,2013-02-13 20:27:00,
2013-02-13 15:32:00,41.2,39.9,29.70,WSW,243,2.0,7.0,95,0.00,,,0.15,meteohub,2013-02-13 20:32:00,
2013-02-13 15:37:00,41.4,40.1,29.70,West,263,1.0,8.0,95,0.00,,,0.15,meteohub,2013-02-13 20:37:00,
2013-02-13 15:42:00,41.4,40.1,29.70,WSW,257,1.0,11.0,95,0.00,,,0.15,meteohub,2013-02-13 20:42:00,
2013-02-13 15:47:00,41.5,40.3,29.70,WSW,250,4.0,11.0,95,0.00,,,0.15,meteohub,2013-02-13 20:47:00,
2013-02-13 15:52:00,41.7,40.5,29.71,West,274,0.0,7.0,95,0.00,,,0.15,meteohub,2013-02-13 20:52:00,
2013-02-13 15:57:00,42.1,40.5,29.71,West,259,1.0,7.0,94,0.00,,,0.15,meteohub,2013-02-13 20:57:00,
2013-02-13 16:02:00,42.3,40.5,29.71,West,276,1.0,7.0,93,0.00,,,0.15,meteohub,2013-02-13 21:02:00,
2013-02-13 16:07:00,42.6,40.5,29.72,WSW,256,1.0,7.0,92,0.00,,,0.15,meteohub,2013-02-13 21:07:00,
2013-02-13 16:12:00,43.0,40.8,29.72,NNW,332,1.0,7.0,92,0.00,,,0.15,meteohub,2013-02-13 21:12:00,
2013-02-13 16:17:00,43.5,40.3,29.71,SSE,155,4.0,6.0,88,0.00,,,0.15,meteohub,2013-02-13 21:17:00,
2013-02-13 16:22:00,43.9,39.4,29.72,WNW,290,2.0,8.0,84,0.00,,,0.15,meteohub,2013-02-13 21:22:00,
2013-02-13 16:27:00,44.1,39.6,29.72,WNW,293,4.0,8.0,84,0.00,,,0.15,meteohub,2013-02-13 21:27:00,
2013-02-13 16:32:00,44.2,39.4,29.72,WNW,292,0.0,8.0,83,0.00,,,0.15,meteohub,2013-02-13 21:32:00,
2013-02-13 16:37:00,44.2,39.4,29.72,WSW,249,0.0,8.0,83,0.00,,,0.15,meteohub,2013-02-13 21:37:00,
2013-02-13 16:42:00,44.2,39.4,29.73,West,276,2.0,8.0,83,0.00,,,0.15,meteohub,2013-02-13 21:42:00,
2013-02-13 16:47:00,44.1,39.6,29.72,WSW,254,2.0,8.0,84,0.00,,,0.15,meteohub,2013-02-13 21:47:00,
2013-02-13 16:52:00,43.5,38.7,29.73,West,263,2.0,8.0,83,0.00,,,0.15,meteohub,2013-02-13 21:52:00,
2013-02-13 16:57:00,43.3,38.3,29.73,WSW,246,3.0,8.0,82,0.00,,,0.15,meteohub,2013-02-13 21:57:00,
2013-02-13 17:02:00,43.3,38.3,29.73,NW,309,3.0,8.0,82,0.00,,,0.15,meteohub,2013-02-13 22:02:00,
2013-02-13 17:07:00,43.3,37.9,29.73,WNW,291,1.0,10.0,81,0.00,,,0.15,meteohub,2013-02-13 22:07:00,
2013-02-13 17:12:00,43.3,37.6,29.73,WNW,298,2.0,10.0,80,0.00,,,0.15,meteohub,2013-02-13 22:12:00,
2013-02-13 17:17:00,43.3,36.7,29.73,WSW,238,8.0,10.0,77,0.00,,,0.15,meteohub,2013-02-13 22:17:00,
2013-02-13 17:22:00,43.2,36.5,29.73,NNE,20,0.0,10.0,77,0.00,,,0.15,meteohub,2013-02-13 22:22:00,
2013-02-13 17:27:00,43.0,36.0,29.74,WSW,246,3.0,10.0,76,0.00,,,0.15,meteohub,2013-02-13 22:27:00,
2013-02-13 17:32:00,43.0,36.0,29.74,WSW,249,4.0,10.0,76,0.00,,,0.15,meteohub,2013-02-13 22:32:00,
2013-02-13 17:37:00,42.4,35.4,29.74,SSW,210,3.0,14.0,76,0.00,,,0.15,meteohub,2013-02-13 22:37:00,
2013-02-13 17:42:00,42.3,35.2,29.75,WSW,257,3.0,14.0,76,0.00,,,0.15,meteohub,2013-02-13 22:42:00,
2013-02-13 17:47:00,41.9,34.9,29.76,WSW,249,6.0,14.0,76,0.00,,,0.15,meteohub,2013-02-13 22:47:00,
2013-02-13 17:52:00,41.7,34.7,29.76,WSW,255,2.0,12.0,76,0.00,,,0.15,meteohub,2013-02-13 22:52:00,
2013-02-13 17:57:00,41.5,34.9,29.77,WSW,255,0.0,9.0,77,0.00,,,0.15,meteohub,2013-02-13 22:57:00,
2013-02-13 18:02:00,41.2,34.2,29.77,WSW,242,2.0,10.0,76,0.00,,,0.15,meteohub,2013-02-13 23:02:00,
2013-02-13 18:07:00,40.8,34.2,29.77,West,261,4.0,10.0,77,0.00,,,0.15,meteohub,2013-02-13 23:07:00,
2013-02-13 18:12:00,40.6,34.3,29.78,NW,308,0.0,10.0,78,0.00,,,0.15,meteohub,2013-02-13 23:12:00,
2013-02-13 18:17:00,40.3,34.3,29.78,SSW,205,2.0,6.0,79,0.00,,,0.15,meteohub,2013-02-13 23:17:00,
2013-02-13 18:22:00,39.9,34.0,29.78,WNW,294,0.0,5.0,79,0.00,,,0.15,meteohub,2013-02-13 23:22:00,
2013-02-13 18:27:00,39.9,34.3,29.78,SW,232,1.0,4.0,80,0.00,,,0.15,meteohub,2013-02-13 23:27:00,
2013-02-13 18:31:00,39.7,34.2,29.78,WSW,240,0.0,5.0,80,0.00,,,0.15,meteohub,2013-02-13 23:31:00,
2013-02-13 18:36:00,39.6,34.0,29.79,WNW,302,0.0,5.0,80,0.00,,,0.15,meteohub,2013-02-13 23:36:00,
2013-02-13 18:42:00,39.4,33.8,29.80,NNW,332,1.0,5.0,80,0.00,,,0.15,meteohub,2013-02-13 23:42:00,
2013-02-13 18:47:00,39.4,33.8,29.80,NNE,33,4.0,4.0,80,0.00,,,0.15,meteohub,2013-02-13 23:47:00,
2013-02-13 18:52:00,39.2,33.6,29.80,NNW,338,1.0,8.0,80,0.00,,,0.15,meteohub,2013-02-13 23:52:00,
2013-02-13 18:57:00,39.2,33.6,29.81,SW,224,0.0,8.0,80,0.00,,,0.15,meteohub,2013-02-13 23:57:00,
2013-02-13 19:02:00,39.0,33.4,29.81,SW,223,0.0,8.0,80,0.00,,,0.15,meteohub,2013-02-14 00:02:00,
2013-02-13 19:07:00,39.0,33.4,29.81,WNW,297,1.0,4.0,80,0.00,,,0.00,meteohub,2013-02-14 00:07:00,
2013-02-13 19:12:00,38.8,33.4,29.81,WNW,287,2.0,4.0,81,0.00,,,0.00,meteohub,2013-02-14 00:12:00,
2013-02-13 19:17:00,38.7,33.3,29.81,West,260,1.0,3.0,81,0.00,,,0.00,meteohub,2013-02-14 00:17:00,
2013-02-13 19:22:00,38.5,33.4,29.81,North,351,0.0,3.0,82,0.00,,,0.00,meteohub,2013-02-14 00:22:00,
2013-02-13 19:27:00,38.1,33.1,29.81,NNE,23,0.0,4.0,82,0.00,,,0.00,meteohub,2013-02-14 00:27:00,
2013-02-13 19:32:00,37.9,33.3,29.82,NE,49,4.0,4.0,83,0.00,,,0.00,meteohub,2013-02-14 00:32:00,
2013-02-13 19:37:00,37.6,33.3,29.83,East,79,1.0,4.0,84,0.00,,,0.00,meteohub,2013-02-14 00:37:00,
2013-02-13 19:42:00,37.6,33.3,29.82,ESE,108,0.0,4.0,84,0.00,,,0.00,meteohub,2013-02-14 00:42:00,
2013-02-13 19:47:00,37.6,33.3,29.83,ESE,107,0.0,4.0,84,0.00,,,0.00,meteohub,2013-02-14 00:47:00,
2013-02-13 19:52:00,37.0,32.7,29.83,ESE,108,0.0,2.0,84,0.00,,,0.00,meteohub,2013-02-14 00:52:00,
2013-02-13 19:57:00,36.3,32.2,29.83,NNE,19,2.0,2.0,85,0.00,,,0.00,meteohub,2013-02-14 00:57:00,
2013-02-13 20:02:00,36.7,32.0,29.83,NNW,342,3.0,6.0,83,0.00,,,0.00,meteohub,2013-02-14 01:02:00,
2013-02-13 20:07:00,36.9,31.6,29.83,NE,47,2.0,6.0,81,0.00,,,0.00,meteohub,2013-02-14 01:07:00,
2013-02-13 20:12:00,36.9,31.3,29.83,NNE,20,6.0,8.0,80,0.00,,,0.00,meteohub,2013-02-14 01:12:00,
2013-02-13 20:17:00,36.9,30.9,29.84,NNE,26,7.0,11.0,79,0.00,,,0.00,meteohub,2013-02-14 01:17:00,
2013-02-13 20:22:00,36.9,30.6,29.84,NNE,29,3.0,11.0,78,0.00,,,0.00,meteohub,2013-02-14 01:22:00,
2013-02-13 20:27:00,36.7,30.6,29.84,NE,53,2.0,11.0,78,0.00,,,0.00,meteohub,2013-02-14 01:27:00,
2013-02-13 20:32:00,36.7,30.2,29.84,NNE,16,4.0,10.0,77,0.00,,,0.00,meteohub,2013-02-14 01:32:00,
2013-02-13 20:37:00,36.5,30.0,29.85,NNE,30,6.0,9.0,77,0.00,,,0.00,meteohub,2013-02-14 01:37:00,
2013-02-13 20:41:00,36.5,30.0,29.85,NNE,31,4.0,9.0,77,0.00,,,0.00,meteohub,2013-02-14 01:41:00,
2013-02-13 20:46:00,36.7,29.5,29.85,NE,50,4.0,9.0,75,0.00,,,0.00,meteohub,2013-02-14 01:46:00,
2013-02-13 20:52:00,36.5,29.3,29.85,NE,41,4.0,14.0,75,0.00,,,0.00,meteohub,2013-02-14 01:52:00,
2013-02-13 20:57:00,36.7,29.5,29.86,NW,322,0.0,14.0,75,0.00,,,0.00,meteohub,2013-02-14 01:57:00,
2013-02-13 21:02:00,36.3,29.1,29.86,North,5,2.0,13.0,75,0.00,,,0.00,meteohub,2013-02-14 02:02:00,
2013-02-13 21:07:00,36.1,28.9,29.86,North,4,1.0,9.0,75,0.00,,,0.00,meteohub,2013-02-14 02:07:00,
2013-02-13 21:12:00,36.0,28.4,29.86,ENE,75,3.0,9.0,74,0.00,,,0.00,meteohub,2013-02-14 02:12:00,
2013-02-13 21:17:00,35.8,28.9,29.86,NE,34,0.0,5.0,76,0.00,,,0.00,meteohub,2013-02-14 02:17:00,
2013-02-13 21:22:00,35.6,28.8,29.87,NNE,30,0.0,5.0,76,0.00,,,0.00,meteohub,2013-02-14 02:22:00,
2013-02-13 21:27:00,35.8,28.6,29.87,NE,36,3.0,8.0,75,0.00,,,0.00,meteohub,2013-02-14 02:27:00,
2013-02-13 21:32:00,35.4,28.6,29.87,NNE,30,1.0,8.0,76,0.00,,,0.00,meteohub,2013-02-14 02:32:00,
2013-02-13 21:37:00,35.2,28.4,29.87,North,10,3.0,8.0,76,0.00,,,0.00,meteohub,2013-02-14 02:37:00,
2013-02-13 21:42:00,34.9,28.4,29.87,NNE,25,3.0,9.0,77,0.00,,,0.00,meteohub,2013-02-14 02:42:00,
2013-02-13 21:47:00,34.9,28.4,29.87,NE,38,3.0,9.0,77,0.00,,,0.00,meteohub,2013-02-14 02:47:00,
2013-02-13 21:52:00,34.9,28.0,29.87,NNE,19,3.0,9.0,76,0.00,,,0.00,meteohub,2013-02-14 02:52:00,
2013-02-13 21:57:00,34.7,28.2,29.88,NNE,12,0.0,9.0,77,0.00,,,0.00,meteohub,2013-02-14 02:57:00,
2013-02-13 22:02:00,34.7,28.2,29.88,ESE,110,1.0,6.0,77,0.00,,,0.00,meteohub,2013-02-14 03:02:00,
2013-02-13 22:07:00,34.5,28.4,29.89,West,259,0.0,6.0,78,0.00,,,0.00,meteohub,2013-02-14 03:07:00,
2013-02-13 22:12:00,34.2,28.0,29.88,NW,313,0.0,4.0,78,0.00,,,0.00,meteohub,2013-02-14 03:12:00,
2013-02-13 22:17:00,34.2,28.0,29.89,West,276,0.0,3.0,78,0.00,,,0.00,meteohub,2013-02-14 03:17:00,
2013-02-13 22:22:00,34.0,27.9,29.89,NE,55,1.0,3.0,78,0.00,,,0.00,meteohub,2013-02-14 03:22:00,
2013-02-13 22:27:00,34.2,27.7,29.89,NE,39,4.0,4.0,77,0.00,,,0.00,meteohub,2013-02-14 03:27:00,
2013-02-13 22:32:00,34.3,27.9,29.89,North,11,0.0,6.0,77,0.00,,,0.00,meteohub,2013-02-14 03:32:00,
2013-02-13 22:37:00,34.0,27.9,29.89,North,11,0.0,6.0,78,0.00,,,0.00,meteohub,2013-02-14 03:37:00,
2013-02-13 22:42:00,33.4,27.3,29.89,WNW,290,0.0,6.0,78,0.00,,,0.00,meteohub,2013-02-14 03:42:00,
2013-02-13 22:47:00,33.3,27.1,29.89,West,276,0.0,2.0,78,0.00,,,0.00,meteohub,2013-02-14 03:47:00,
2013-02-13 22:52:00,33.4,27.3,29.89,NE,41,1.0,3.0,78,0.00,,,0.00,meteohub,2013-02-14 03:52:00,
2013-02-13 22:57:00,33.3,27.5,29.90,NW,311,0.0,3.0,79,0.00,,,0.00,meteohub,2013-02-14 03:57:00,
2013-02-13 23:02:00,33.3,27.1,29.90,NNE,13,0.0,3.0,78,0.00,,,0.00,meteohub,2013-02-14 04:02:00,
2013-02-13 23:07:00,33.4,27.3,29.90,East,97,2.0,2.0,78,0.00,,,0.00,meteohub,2013-02-14 04:07:00,
2013-02-13 23:12:00,33.4,27.0,29.90,West,277,0.0,2.0,77,0.00,,,0.00,meteohub,2013-02-14 04:12:00,
2013-02-13 23:17:00,33.6,27.1,29.90,NW,307,0.0,3.0,77,0.00,,,0.00,meteohub,2013-02-14 04:17:00,
2013-02-13 23:22:00,33.6,27.1,29.90,NW,324,2.0,4.0,77,0.00,,,0.00,meteohub,2013-02-14 04:22:00,
2013-02-13 23:27:00,33.6,27.1,29.90,NW,324,2.0,5.0,77,0.00,,,0.00,meteohub,2013-02-14 04:27:00,
2013-02-13 23:32:00,33.6,27.1,29.90,North,358,3.0,5.0,77,0.00,,,0.00,meteohub,2013-02-14 04:32:00,
2013-02-13 23:37:00,33.6,27.1,29.91,NW,305,2.0,5.0,77,0.00,,,0.00,meteohub,2013-02-14 04:37:00,
2013-02-13 23:42:00,33.4,27.0,29.91,East,89,0.0,5.0,77,0.00,,,0.00,meteohub,2013-02-14 04:42:00,
2013-02-13 23:47:00,33.4,27.0,29.91,North,352,2.0,8.0,77,0.00,,,0.00,meteohub,2013-02-14 04:47:00,
2013-02-13 23:52:00,33.4,27.0,29.91,SSE,151,0.0,8.0,77,0.00,,,0.00,meteohub,2013-02-14 04:52:00,
2013-02-13 23:57:00,33.4,27.0,29.91,NNW,332,1.0,8.0,77,0.00,,,0.00,meteohub,2013-02-14 04:57:00,